Tracking 19638 objects as of 20-May-2019
HD Live streaming from Space Station
objects crossing your sky now

FLOCK 2K 43

Track FLOCK 2K 43 now!
10-day predictions
FLOCK 2K 43 is classified as:


NORAD ID: 42874
Int'l Code: 2017-042BB
Perigee: 457.8 km
Apogee: 473.9 km
Inclination: 96.9 °
Period: 93.8 minutes
Semi major axis: 6836 km
RCS: Unknown
Launch date: July 14, 2017
Source: United States (US)
Launch site: TYURATAM MISSILE AND SPACE COMPLEX (TTMTR)
aabbcc
Your satellite tracking list
Your tracking list is empty




NASA's NSSDC Master Catalog

Two Line Element Set (TLE):
1 42874U 17042BB  19140.13227761  .00001492  00000-0  44947-4 0  9991
2 42874  96.9433  22.5888 0011735 337.3353  22.7373 15.35739635103294
Source of the keplerian elements: AFSPC